Location: *
(28.3744°N, 81.5492°W)
Time: 02:59:30
(UTC+00:00)

Cosmos 1844 Rocket - Pass Details

Date: 15 June 2025
Orbit: 822 x 844 km, 71.0° (Epoch: 11 July)

Event Time Altitude Azimuth Distance (km) Brightness Sun altitude
Exits shadow 03:59:42 22° 39° (NE) 1,740 4.5 -34.2°
Drops below altitude 10° 04:01:45 10° 31° (NNE) 2,461 5.5 -34.4°
Sets 04:04:16 0° 26° (NNE) 3,400 6.3 -34.6°
